8,
Avoca, PA
on Sunday, December 9, 2012

Sunday
Previous Day Next Day
Daily Summary
 ActualAverageRecord
Temperature
Mean Temperature °F 33°F  
Max Temperature 47°F 40°F 64°F (1966)
Min Temperature 38°F 26°F 3°F (1902)
Degree Days
Heating Degree Days 22 32  
Month to date heating degree days 199 277  
Since 1 July heating degree days 1426 1590  
Cooling Degree Days 0 0  
Month to date cooling degree days 0 0  
Year to date cooling degree days 864 580  
Moisture
Dew Point 35°F   
Average Humidity 79    
Maximum Humidity 100    
Minimum Humidity 57    
Precipitation
Precipitation 0.04 in 0.10 in 1.03 in (1973)
Month to date precipitation 0.68 0.89  
Year to date precipitation 34.85 36.47  
Wind
Wind Speed 5 mph   
Max Wind Speed 18 mph   
Max Gust Speed 22 mph   
Visibility 9 miles   
Events Rain   

Key: T is trace of precipitation, MM is missing value
Source: NWS Daily Summary
Time(EST)TemperatureDew PointHumidity Pressure Visibility Wind DirectionWind SpeedGust SpeedPrecipitationEvents Conditions
12:05 AM 46.4°F 44.6°F 93% 30.03 in 3.0 miles SSW 3.5 mph - N/A   Overcast
12:54 AM 46.9°F 44.1°F 90% 30.05 in 5.0 miles Calm Calm - N/A   Overcast
1:01 AM 46.4°F 44.6°F 93% 30.05 in 5.0 miles Calm Calm - N/A   Overcast
1:13 AM 46.4°F 44.6°F 93% 30.05 in 6.0 miles NNW 3.5 mph - N/A   Overcast
1:54 AM 46.9°F 42.1°F 83% 30.08 in 10.0 miles North 8.1 mph - N/A   Overcast
2:10 AM 46.4°F 39.2°F 76% 30.08 in 10.0 miles North 5.8 mph - N/A   Overcast
2:26 AM 46.4°F 39.2°F 76% 30.08 in 10.0 miles North 12.7 mph - N/A   Overcast
2:54 AM 45.0°F 39.0°F 80% 30.10 in 10.0 miles North 9.2 mph - N/A   Overcast
3:54 AM 42.1°F 35.1°F 76% 30.13 in 10.0 miles North 12.7 mph - N/A   Overcast
4:54 AM 39.9°F 33.1°F 77% 30.16 in 10.0 miles NNE 9.2 mph - N/A   Overcast
5:54 AM 39.0°F 32.0°F 76% 30.19 in 10.0 miles NNE 5.8 mph 18.4 mph N/A   Overcast
6:54 AM 37.9°F 30.9°F 76% 30.22 in 10.0 miles North 10.4 mph - N/A   Overcast
7:54 AM 37.9°F 30.9°F 76% 30.24 in 10.0 miles North 4.6 mph - N/A   Overcast
8:54 AM 37.9°F 30.9°F 76% 30.24 in 10.0 miles NE 5.8 mph - N/A   Mostly Cloudy
9:02 AM 37.4°F 30.2°F 75% 30.23 in 10.0 miles NNE 6.9 mph - N/A   Scattered Clouds
9:54 AM 37.9°F 30.0°F 73% 30.24 in 10.0 miles NE 8.1 mph - N/A   Mostly Cloudy
10:54 AM 39.0°F 30.0°F 70% 30.23 in 10.0 miles NNE 8.1 mph - N/A   Mostly Cloudy
11:54 AM 39.9°F 30.0°F 68% 30.21 in 10.0 miles North 6.9 mph - N/A   Overcast
12:54 PM 39.9°F 30.9°F 70% 30.18 in 10.0 miles NNE 6.9 mph - 0.00 in Rain Light Rain
1:54 PM 41.0°F 32.0°F 70% 30.17 in 10.0 miles NE 4.6 mph - 0.00 in Rain Light Rain
2:54 PM 42.1°F 32.0°F 67% 30.16 in 10.0 miles Calm Calm - 0.00 in   Overcast
3:54 PM 42.1°F 33.1°F 70% 30.16 in 10.0 miles NE 3.5 mph - N/A   Overcast
4:54 PM 42.1°F 28.0°F 58% 30.14 in 10.0 miles Calm Calm - 0.00 in   Overcast
5:54 PM 41.0°F 28.0°F 60% 30.14 in 10.0 miles Calm Calm - 0.00 in   Overcast
6:54 PM 39.9°F 32.0°F 73% 30.12 in 10.0 miles SE 6.9 mph 17.3 mph N/A   Overcast
7:54 PM 41.0°F 34.0°F 76% 30.09 in 10.0 miles Variable 3.5 mph - N/A   Overcast
8:54 PM 41.0°F 37.0°F 86% 30.06 in 10.0 miles East 3.5 mph - 0.03 in Rain Light Rain
9:46 PM 42.8°F 37.4°F 81% 30.02 in 10.0 miles Variable 5.8 mph - 0.00 in   Overcast
9:54 PM 42.1°F 37.9°F 85% 30.03 in 10.0 miles ENE 3.5 mph - 0.00 in Rain Light Rain
10:46 PM 42.8°F 37.4°F 81% 29.99 in 10.0 miles Calm Calm - 0.01 in Rain Light Rain
10:54 PM 42.1°F 37.9°F 85% 30.00 in 10.0 miles ENE 4.6 mph - 0.01 in   Overcast
11:54 PM 43.0°F 39.0°F 86% 29.96 in 10.0 miles Calm Calm - N/A   Overcast
Astronomy
Sunrise:07:17 AM (EST) Moon Rise:02:45 AM (EST)12/9
Sunset:04:33 PM (EST) Moon Set:01:40 PM (EST)12/9
Moon Phase
Dec. 09 Dec. 13 Dec. 20 Dec. 28 Jan. 04

Copyright © 2014 The Weather Underground, Inc.
8,